(480484) = 2006 SZ224 = 2015 LY26

Discovered at Kitt Peak on 2006-09-26 by Spacewatch.

Orbit

Orbit type: Main Belt

Note: WebGL enabled browser required.

epoch2024-03-31.0
epoch JD2460400.5
perihelion date2022-09-23.23967
perihelion JD2459845.73967
argument of perihelion (°)251.81420
ascending node (°)165.24799
inclination (°)5.76681
eccentricity0.0833759
perihelion distance (AU)2.7079995
Tisserand w.r.t. Jupiter3.3
ΔV w.r.t. Earth (km/sec)10.4
semimajor axis (AU)2.9543183
mean anomaly (°)107.67709
mean daily motion (°/day)0.19409660
aphelion distance (AU)3.201
period (years)5.08
P-vector [x]0.54250411
P-vector [y]0.80371332
P-vector [z]0.24440579
Q-vector [x]-0.83966342
Q-vector [y]0.50993386
Q-vector [z]0.18690317
absolute magnitude16.86
phase slope0.15
uncertainty0
referenceMPEC 2024-F14
observations used180
oppositions12
arc length (days)6382
first opposition used2006
last opposition used2024
residual rms (arc-secs)0.85
perturbers coarse indicatorM-v
perturbers precise indicator003Ek
first observation date used2006-09-26.0
last observation date used2024-03-17.0
computer nameMPCLINUX
JD of orbit computation2457687.263311
perihelion JD uncertainty (days)2.8553E-04
argument of perihelion uncertainty (°)6.5774E-05
ascending node uncertainty (°)4.4278E-05
inclination uncertainty (°)5.6649E-06
eccentricity uncertainty 7.0520E-08
perihelion distance uncertainty (AU)2.1934E-07
Minimum Orbit Intersection Distances (in AU)
for orbit epoch: 2460400.5, reference: E2024-GH2
Mercury2.39588
Venus1.98845
Earth1.72684
Mars1.19447
Jupiter2.08929
Saturn6.28598
Uranus15.3877
Neptune27.0756

Observations

190 total observations over interval: 2006 09 26.17400 – 2024 03 17.443910
These data are available for download (format description).

Date (UT) J2000 RA J2000 Dec Magn Location Ref
2006 09 26.17400 23 22 05.29 -05 29 27.3 20.9 V 691 – Steward Observatory, Kitt Peak-Spacewatch MPS 182929
2006 09 26.19135 23 22 04.51 -05 29 33.5 20.4 V 691 – Steward Observatory, Kitt Peak-Spacewatch MPS 182929
2006 09 26.20875 23 22 03.84 -05 29 40.5 21.1 V 691 – Steward Observatory, Kitt Peak-Spacewatch MPS 182929
2006 09 30.23806 23 19 24.06 -05 54 17.6 20.9 V G96 – Mt. Lemmon Survey MPS 182929
2006 09 30.24538 23 19 23.73 -05 54 20.1 21.1 V G96 – Mt. Lemmon Survey MPS 182929
2006 09 30.25262 23 19 23.48 -05 54 22.4 20.5 V G96 – Mt. Lemmon Survey MPS 182929
2006 09 30.25974 23 19 23.16 -05 54 25.3 21.0 V G96 – Mt. Lemmon Survey MPS 182929
2006 10 20.20341 23 09 55.54 -07 26 24.8 21.4 V G96 – Mt. Lemmon Survey MPS 612762
2006 10 20.21065 23 09 55.36 -07 26 25.6 21.4 V G96 – Mt. Lemmon Survey MPS 612762
2006 10 20.21779 23 09 55.22 -07 26 27.2 21.9 V G96 – Mt. Lemmon Survey MPS 612762
2006 10 20.22501 23 09 55.08 -07 26 28.5 21.5 V G96 – Mt. Lemmon Survey MPS 612762
2009 03 21.35073 12 43 09.58 -01 13 45.7 21.3 V G96 – Mt. Lemmon Survey MPS 612762
2009 03 21.35625 12 43 09.33 -01 13 44.2 20.8 V G96 – Mt. Lemmon Survey MPS 612762
2009 03 21.36176 12 43 09.08 -01 13 42.0 21.4 V G96 – Mt. Lemmon Survey MPS 612762
2009 03 21.36727 12 43 08.86 -01 13 39.9 21.2 V G96 – Mt. Lemmon Survey MPS 612762
2011 08 20.48602 23 14 37.423 -04 04 56.04 21.0 r F51 – Pan-STARRS 1, Haleakala MPS 612762
2011 08 20.49643 23 14 37.035 -04 04 59.60 20.8 r F51 – Pan-STARRS 1, Haleakala MPS 612762
2011 08 20.50859 23 14 36.573 -04 05 03.57 21.0 i F51 – Pan-STARRS 1, Haleakala MPS 612762
2014 02 26.51444 12 30 44.081 -01 20 06.03 21.6 w F51 – Pan-STARRS 1, Haleakala MPS 612762
2014 02 26.52680 12 30 43.696 -01 20 01.88 21.7 w F51 – Pan-STARRS 1, Haleakala MPS 612762
2014 02 26.53917 12 30 43.301 -01 19 58.02 21.5 w F51 – Pan-STARRS 1, Haleakala MPS 612762
2014 02 26.55154 12 30 42.915 -01 19 54.24 21.5 w F51 – Pan-STARRS 1, Haleakala MPS 612762
2015 06 13.43482 16 59 35.982 -14 16 14.68 21.3 w F51 – Pan-STARRS 1, Haleakala MPS 611634
2015 06 13.46029 16 59 34.694 -14 16 13.35 21.3 w F51 – Pan-STARRS 1, Haleakala MPS 611634
2015 06 13.47294 16 59 34.045 -14 16 12.72 21.3 w F51 – Pan-STARRS 1, Haleakala MPS 611634
2015 06 15.34907 16 58 02.102 -14 14 40.11 21.3 w F51 – Pan-STARRS 1, Haleakala MPS 611634
2015 06 15.36163 16 58 01.469 -14 14 39.48 21.4 w F51 – Pan-STARRS 1, Haleakala MPS 611634
2015 06 15.37411 16 58 00.834 -14 14 38.77 21.4 w F51 – Pan-STARRS 1, Haleakala MPS 611634
2015 06 15.38666 16 58 00.217 -14 14 38.34 21.3 w F51 – Pan-STARRS 1, Haleakala MPS 611634
2015 06 23.41098 16 51 43.159 -14 10 31.79 21.4 w F51 – Pan-STARRS 1, Haleakala MPS 612762
2015 06 23.42289 16 51 42.618 -14 10 31.43 21.3 w F51 – Pan-STARRS 1, Haleakala MPS 612762
2015 06 23.43485 16 51 42.072 -14 10 31.33 21.5 w F51 – Pan-STARRS 1, Haleakala MPS 612762
2015 06 23.44674 16 51 41.521 -14 10 30.97 21.5 w F51 – Pan-STARRS 1, Haleakala MPS 612762
2016 08 03.46145 22 52 12.931 -05 05 56.84 21.3 w F51 – Pan-STARRS 1, Haleakala MPS 722179
2016 08 03.47319 22 52 12.591 -05 05 59.79 21.1 w F51 – Pan-STARRS 1, Haleakala MPS 722179
2016 08 03.48493 22 52 12.262 -05 06 02.82 21.3 w F51 – Pan-STARRS 1, Haleakala MPS 722179
2016 08 03.49668 22 52 11.913 -05 06 05.78 21.2 w F51 – Pan-STARRS 1, Haleakala MPS 722179
2016 08 28.19605 22 36 43.84 -07 21 45.5 20.4 V G96 – Mt. Lemmon Survey MPS 725682
2016 08 28.20196 22 36 43.58 -07 21 46.8 19.9 V G96 – Mt. Lemmon Survey MPS 725682
2016 08 28.20781 22 36 43.31 -07 21 50.1 20.3 V G96 – Mt. Lemmon Survey MPS 725682
2016 08 28.21383 22 36 43.07 -07 21 52.5 20.9 V G96 – Mt. Lemmon Survey MPS 725682
2016 08 28.65174 22 36 23.55 -07 24 39.4 20.6 R D29 – Purple Mountain Observatory, XuYi Station MPS 725682
2016 08 28.66676 22 36 22.86 -07 24 45.3 20.6 R D29 – Purple Mountain Observatory, XuYi Station MPS 725682
2016 08 28.68178 22 36 22.17 -07 24 51.5 20.2 R D29 – Purple Mountain Observatory, XuYi Station MPS 725682
2016 09 26.27676 22 17 33.03 -10 13 13.2 20.6 V G96 – Mt. Lemmon Survey MPS 730778
2016 09 26.28112 22 17 32.92 -10 13 14.1 21.0 V G96 – Mt. Lemmon Survey MPS 730778
2016 09 26.28543 22 17 32.79 -10 13 16.0 21.2 V G96 – Mt. Lemmon Survey MPS 730778
2016 09 26.28976 22 17 32.65 -10 13 16.9 20.9 V G96 – Mt. Lemmon Survey MPS 730778
2016 10 25.27261 22 12 58.663 -11 31 30.51 21.8 w F51 – Pan-STARRS 1, Haleakala MPS 737612
2016 10 25.28377 22 12 58.739 -11 31 30.81 22.0 w F51 – Pan-STARRS 1, Haleakala MPS 737612
2016 10 25.29496 22 12 58.885 -11 31 31.26 22.0 w F51 – Pan-STARRS 1, Haleakala MPS 737612
2017 09 01.58806 05 19 50.296 +17 36 29.66 22.2 w F51 – Pan-STARRS 1, Haleakala MPS 815017
2017 09 01.59325 05 19 50.646 +17 36 29.34 22.4 w F51 – Pan-STARRS 1, Haleakala MPS 815017
2017 09 01.59842 05 19 51.007 +17 36 29.07 22.1 w F51 – Pan-STARRS 1, Haleakala MPS 815017
2017 09 01.60359 05 19 51.372 +17 36 28.95 22.4 w F51 – Pan-STARRS 1, Haleakala MPS 815017
2017 12 15.25433 05 31 20.49 +14 20 11.6 20.3 G G96 – Mt. Lemmon Survey MPS 851472
2017 12 15.25984 05 31 20.16 +14 20 11.4 20.0 G G96 – Mt. Lemmon Survey MPS 851472
2017 12 15.27028 05 31 19.73 +14 20 10.8 19.4 G G96 – Mt. Lemmon Survey MPS 851472
2017 12 25.26076 05 22 30.87 +14 21 16.8 20.3 G G96 – Mt. Lemmon Survey MPS 854229
2017 12 25.26588 05 22 30.59 +14 21 17.2 20.5 G G96 – Mt. Lemmon Survey MPS 854229
2017 12 25.27099 05 22 30.33 +14 21 17.2 20.6 G G96 – Mt. Lemmon Survey MPS 854229
2018 01 05.30400 05 14 06.95 +14 31 42.6 21.1 V 691 – Steward Observatory, Kitt Peak-Spacewatch MPS 855499
2018 01 05.31555 05 14 06.45 +14 31 44.2 20.7 V 691 – Steward Observatory, Kitt Peak-Spacewatch MPS 855499
2018 01 05.32692 05 14 05.99 +14 31 44.4 21.0 V 691 – Steward Observatory, Kitt Peak-Spacewatch MPS 855499
2019 02 28.40010 12 03 04.86 +00 58 14.0 21.6 G G96 – Mt. Lemmon Survey MPS 976265
2019 02 28.40567 12 03 04.56 +00 58 16.0 22.3 G G96 – Mt. Lemmon Survey MPS 976265
2019 02 28.41123 12 03 04.36 +00 58 18.8 22.3 G G96 – Mt. Lemmon Survey MPS 976265
2019 02 28.41680 12 03 04.15 +00 58 21.9 20.9 G G96 – Mt. Lemmon Survey MPS 976265
2019 03 29.23115 11 42 33.39 +04 01 32.5 20.7 G G96 – Mt. Lemmon Survey MPS 986430
2019 03 29.23673 11 42 33.21 +04 01 33.9 20.9 G G96 – Mt. Lemmon Survey MPS 986430
2019 03 29.24790 11 42 32.59 +04 01 37.6 20.4 G G96 – Mt. Lemmon Survey MPS 986430
2019 04 03.30017 11 39 09.632 +04 30 37.61 21.4 w F51 – Pan-STARRS 1, Haleakala MPS 986430
2019 04 03.31138 11 39 09.184 +04 30 41.32 21.4 w F51 – Pan-STARRS 1, Haleakala MPS 986430
2019 04 03.32259 11 39 08.738 +04 30 45.19 21.4 w F51 – Pan-STARRS 1, Haleakala MPS 986430
2019 04 03.33383 11 39 08.277 +04 30 48.82 21.3 w F51 – Pan-STARRS 1, Haleakala MPS 986430
2020 05 25.35868 16 47 47.12 -14 00 10.7 21.3 G G96 – Mt. Lemmon Survey MPS 1199483
2020 05 25.36471 16 47 46.81 -14 00 09.6 21.5 G G96 – Mt. Lemmon Survey MPS 1199483
2020 05 25.36981 16 47 46.58 -14 00 10.2 21.7 G G96 – Mt. Lemmon Survey MPS 1199483
2020 05 25.37492 16 47 46.31 -14 00 09.5 21.2 G G96 – Mt. Lemmon Survey MPS 1199483
2020 05 28.42660 16 45 17.956 -13 53 54.51 21.5 w F51 – Pan-STARRS 1, Haleakala MPS 1199483
2020 05 28.43888 16 45 17.341 -13 53 53.14 21.6 w F51 – Pan-STARRS 1, Haleakala MPS 1199483
2020 05 28.45115 16 45 16.714 -13 53 51.74 21.4 w F51 – Pan-STARRS 1, Haleakala MPS 1199483
2020 06 15.32349 16 30 50.999 -13 27 27.64 21.4 w F52 – Pan-STARRS 2, Haleakala MPS 1204789
2020 06 15.33549 16 30 50.470 -13 27 26.77 21.3 w F52 – Pan-STARRS 2, Haleakala MPS 1204789
2020 06 15.34744 16 30 49.877 -13 27 26.24 21.4 w F52 – Pan-STARRS 2, Haleakala MPS 1204789
2020 06 17.36167 16 29 19.617 -13 25 45.46 21.6 w F51 – Pan-STARRS 1, Haleakala MPS 1204789
2020 06 17.37355 16 29 19.066 -13 25 45.10 21.5 w F51 – Pan-STARRS 1, Haleakala MPS 1204789
2020 06 17.38540 16 29 18.536 -13 25 44.37 21.7 w F51 – Pan-STARRS 1, Haleakala MPS 1204789
2020 06 17.39725 16 29 17.989 -13 25 43.85 21.7 w F51 – Pan-STARRS 1, Haleakala MPS 1204789
2020 06 21.35093 16 26 29.366 -13 23 19.48 21.8 w F51 – Pan-STARRS 1, Haleakala MPS 1206805
2020 06 21.36327 16 26 28.831 -13 23 19.18 21.7 w F51 – Pan-STARRS 1, Haleakala MPS 1206805
